Tracking 19831 objects as of 24-Aug-2019
HD Live streaming from Space Station
objects crossing your sky now

COSMOS 1455

Track COSMOS 1455 now!
10-day predictions
COSMOS 1455 is classified as:


NORAD ID: 14032
Int'l Code: 1983-037A
Perigee: 506.7 km
Apogee: 531.3 km
Inclination: 82.5 °
Period: 94.9 minutes
Semi major axis: 6889 km
RCS: 6.2678 m2 (large)
Launch date: April 23, 1983
Source: Commonwealth of Independent States (former USSR) (CIS)
Launch site: PLESETSK MISSILE AND SPACE COMPLEX (PKMTR)
aabbcc
Your satellite tracking list
Your tracking list is empty




NASA's NSSDC Master Catalog

Two Line Element Set (TLE):
1 14032U 83037A   19235.45575819  .00000202  00000-0  82479-5 0  9994
2 14032  82.5166  19.3634 0017921  32.9024 327.3321 15.18009018982290
Source of the keplerian elements: AFSPC